Theta_e
318 317 319 319 318 317 315 315 317 318 319 319 320 321 320 321 321 321 322 322 323 323 323 323 322 322 321 321 323 325 318 308 308 312 312 311 310 311 310 309 309 309 309 309 310 312 311 311 311 310 315 316 314 315 313 315 320 330 339 329 321 321 322 319 316 317 320 320 314 310 312 316 315 310 309 308 313 316 314 318 317 318 322 319 319 319 322 329
318 318 319 318 318 316 314 316 318 318 318 319 319 320 320 320 320 320 321 321 322 322 322 322 320 321 319 320 321 318 310 307 310 311 312 310 310 311 310 310 308 309 311 310 311 312 312 311 310 312 318 317 313 315 315 314 319 333 331 321 326 330 321 316 316 315 315 315 314 311 311 314 315 313 310 311 316 316 315 317 316 322 323 320 321 319 322 328
318 319 319 318 316 315 315 317 318 317 317 318 318 319 319 319 319 319 320 319 320 319 319 319 319 320 318 317 314 309 309 310 310 310 312 310 310 311 310 310 308 310 312 312 312 311 311 312 310 314 319 318 315 315 318 317 317 325 327 324 329 330 319 313 315 315 312 312 315 312 309 312 313 312 311 313 317 315 318 318 315 321 323 327 324 319 324 328
318 319 318 317 315 315 317 318 317 317 317 317 317 318 318 318 318 318 318 318 318 317 316 317 318 318 316 314 309 309 312 311 309 310 311 311 311 311 310 309 308 311 315 313 312 310 310 311 310 315 319 317 317 316 317 317 315 317 324 327 324 321 318 314 313 314 311 311 314 313 311 312 310 310 311 315 316 316 319 317 316 319 324 335 326 321 327 328
319 318 317 316 315 316 318 317 317 316 316 316 317 317 318 317 317 318 318 317 316 315 314 314 315 314 313 310 308 311 313 310 311 313 312 312 311 310 310 309 308 312 315 313 311 310 310 310 311 317 319 316 316 317 315 312 313 315 315 317 318 316 315 313 312 313 310 310 313 313 312 312 310 310 313 316 316 317 317 315 318 317 322 337 327 323 328 328
319 318 316 315 315 317 318 317 315 315 316 317 317 317 317 317 317 317 317 317 315 314 312 312 311 310 309 307 309 312 311 310 312 314 314 313 310 310 309 308 310 314 314 313 309 309 311 311 312 317 317 316 316 316 316 310 311 318 313 311 314 314 313 311 310 312 310 311 313 313 312 311 311 312 312 315 316 316 313 309 310 309 316 326 324 324 329 329
319 317 315 314 316 318 317 316 314 315 317 316 316 316 316 316 316 316 316 317 315 314 310 310 309 308 308 308 310 312 311 311 311 313 315 314 312 310 310 309 312 314 313 311 309 311 313 312 314 316 317 317 315 313 314 311 312 319 316 311 312 311 311 310 308 310 309 313 313 310 310 311 314 313 309 312 316 313 308 304 303 308 315 321 323 325 328 329
318 317 315 314 316 318 316 314 314 316 316 316 316 315 316 315 315 316 315 316 316 314 310 310 309 307 308 309 311 312 313 313 312 314 316 314 313 312 311 312 313 313 312 311 311 312 312 313 313 313 316 315 314 313 312 312 314 319 316 312 311 309 310 308 308 309 309 311 309 309 312 313 312 310 309 313 316 311 310 311 312 314 319 322 324 325 327 328
318 316 315 315 317 317 314 314 316 317 316 315 316 315 315 314 314 315 315 315 315 313 311 310 309 307 309 309 310 311 311 313 312 314 315 315 314 313 312 312 312 312 312 312 310 310 311 313 313 312 314 312 311 314 313 313 315 317 315 313 312 310 309 309 311 311 311 310 308 310 313 312 309 307 312 315 314 312 316 328 324 320 326 324 324 324 325 328
317 316 315 316 317 315 314 315 316 316 315 315 315 314 314 313 314 314 314 315 313 311 310 310 309 309 309 308 308 309 311 314 312 311 314 315 314 312 312 311 312 312 311 311 309 309 311 312 311 310 312 312 311 312 311 313 313 313 313 313 312 311 311 312 313 311 312 311 310 313 314 312 308 309 314 312 308 309 323 339 325 325 336 325 322 323 323 326
317 316 316 316 316 314 314 316 316 315 315 315 315 314 313 313 313 313 314 314 312 310 309 309 309 309 310 307 307 308 312 315 312 312 312 313 313 312 312 312 312 312 311 310 309 309 310 310 307 308 311 311 311 312 310 310 311 311 313 313 311 311 312 312 313 312 313 311 311 315 313 312 309 311 317 311 306 308 324 345 332 334 336 321 321 323 322 324
317 316 316 316 315 313 315 316 315 315 314 314 314 313 313 313 313 313 313 312 310 309 308 309 308 309 309 307 306 308 312 315 313 313 313 312 312 311 311 312 311 312 311 309 309 310 310 309 308 311 311 310 312 312 311 310 311 312 313 315 312 312 313 311 312 312 314 312 311 315 312 313 313 314 317 309 308 312 321 339 339 338 330 319 320 319 321 323
317 316 316 315 314 314 314 314 315 315 314 314 313 312 313 313 312 313 312 310 309 308 308 308 308 309 309 308 308 308 312 314 314 314 313 311 311 312 312 312 312 311 311 310 310 310 310 310 310 312 311 313 314 310 310 311 312 312 313 316 314 313 314 310 311 313 313 311 310 312 312 318 318 315 313 307 309 315 319 327 332 334 328 319 318 317 320 321
316 316 316 315 314 314 314 313 314 314 314 313 312 312 312 312 312 312 310 309 308 308 309 308 309 309 308 309 309 308 310 313 314 314 313 311 311 312 312 312 313 311 311 312 311 311 311 309 308 310 310 313 312 307 313 317 316 313 310 316 316 313 314 312 313 315 312 310 309 309 311 318 320 314 308 307 310 315 318 321 321 325 325 320 318 317 318 318
316 316 316 315 314 314 314 313 313 314 314 313 312 312 312 312 312 311 309 309 307 308 309 309 310 308 307 309 308 308 311 312 314 314 313 312 311 312 312 313 313 312 312 312 312 311 310 309 311 313 310 309 310 311 317 319 322 320 311 315 315 312 316 314 314 318 314 311 311 310 312 316 316 314 307 307 311 313 317 320 317 319 320 318 316 315 316 315
317 316 316 315 314 314 313 312 313 314 313 312 311 311 311 311 311 310 309 308 308 309 309 310 310 308 307 309 308 310 312 312 313 313 313 312 311 312 312 312 312 312 312 312 311 310 309 312 312 311 311 310 312 316 316 316 323 322 317 320 316 312 315 312 312 315 315 313 312 311 314 318 316 313 309 307 312 314 316 320 318 317 315 314 313 311 312 312
317 316 316 315 314 313 313 313 313 313 313 312 311 311 310 310 310 308 309 309 310 310 309 311 310 307 305 307 310 313 313 311 311 312 312 312 311 312 311 311 310 309 311 310 311 310 310 313 310 309 314 314 313 316 315 314 317 317 320 324 318 314 314 312 311 311 312 313 313 312 313 317 317 314 311 309 312 314 318 321 320 317 314 312 311 310 310 310
317 316 316 315 314 314 313 313 313 313 312 312 310 310 309 310 309 309 311 311 311 309 309 311 309 307 307 307 311 313 311 311 312 311 312 312 311 311 312 311 308 309 311 311 311 312 312 313 314 316 316 313 312 314 314 315 315 313 316 318 315 314 311 313 315 311 311 313 315 315 313 315 315 313 312 310 310 314 318 319 317 316 316 315 312 311 310 308
317 316 316 315 314 314 313 313 313 312 312 311 310 310 310 310 310 311 311 310 309 308 309 310 308 309 309 308 311 311 311 311 311 311 311 312 311 310 311 310 310 312 313 314 312 313 318 317 314 317 315 312 313 313 315 318 317 314 315 318 318 317 313 314 317 311 310 313 315 316 315 316 316 315 315 312 310 312 314 314 314 313 314 314 313 313 312 312
317 316 316 315 314 313 313 313 312 312 311 311 311 309 309 310 311 312 311 311 311 308 309 311 308 309 309 309 311 311 311 311 311 311 310 311 311 310 310 309 313 315 313 317 315 312 318 318 314 315 314 314 313 313 316 318 316 314 316 320 320 317 315 315 315 313 310 313 315 316 317 318 316 315 315 311 309 311 312 314 315 314 314 314 314 314 313 314
316 316 316 315 314 313 313 312 312 312 311 311 310 309 309 309 309 311 311 312 309 304 308 310 307 308 309 309 310 310 310 312 311 311 311 310 310 311 311 311 314 314 313 318 316 310 314 316 315 315 313 313 313 312 315 315 315 315 316 318 317 316 317 313 312 313 311 312 316 318 316 316 314 313 312 311 310 313 315 315 316 317 316 313 312 314 313 311
316 316 315 315 314 313 313 312 312 312 311 311 308 308 312 310 307 309 310 310 308 303 307 309 306 308 310 309 310 309 311 314 312 312 311 309 311 312 312 313 315 315 313 314 315 313 314 316 315 313 312 312 313 314 317 317 318 320 318 316 316 317 317 312 311 313 311 312 317 319 316 316 316 314 315 313 312 314 314 314 315 316 316 313 311 312 311 309
316 316 315 315 314 314 313 312 312 311 310 311 307 307 313 310 307 308 309 311 309 305 308 311 308 310 312 311 310 310 311 314 313 313 311 309 311 312 312 313 314 315 313 313 315 316 318 319 314 310 310 311 313 314 316 317 319 321 319 317 317 316 315 314 312 312 310 311 316 318 317 318 318 316 317 313 309 311 312 311 311 310 312 312 311 312 310 309
316 315 315 315 314 314 313 312 312 311 310 310 308 309 312 310 307 308 309 311 309 307 308 309 310 315 316 311 310 312 312 312 313 312 310 310 311 311 312 313 313 314 312 313 314 315 317 313 307 308 310 313 314 313 315 316 315 316 319 324 323 318 317 317 313 312 312 310 312 315 314 322 326 322 319 314 308 310 311 311 312 310 308 308 310 311 309 309
316 315 315 315 314 314 313 312 311 310 310 309 309 310 311 310 307 307 310 310 309 308 306 306 310 315 314 310 311 313 312 311 312 311 309 309 310 310 310 310 312 313 312 313 313 314 314 307 304 308 309 312 313 313 316 316 315 315 317 325 328 321 319 317 314 316 317 313 311 310 313 327 334 329 321 318 316 316 314 314 315 315 311 308 311 311 308 308
316 316 315 315 314 313 312 312 310 309 310 309 309 310 310 311 308 308 311 311 311 309 306 307 309 310 311 311 312 313 313 312 309 309 309 308 309 309 309 309 310 312 312 312 312 313 311 305 307 312 311 312 312 312 314 315 317 316 315 319 322 322 321 320 318 320 322 315 309 309 315 322 327 327 323 319 323 324 318 316 318 317 314 313 314 312 310 309
317 316 315 315 313 313 312 311 309 309 311 309 309 309 310 311 308 308 312 311 312 311 307 307 307 308 311 310 311 312 314 314 309 309 310 308 307 307 310 310 309 310 310 311 314 312 309 307 309 312 313 314 313 312 314 315 317 316 314 316 320 321 322 321 319 322 322 313 311 317 319 315 317 321 322 316 318 323 318 317 319 318 316 318 317 314 311 309
317 315 315 314 313 313 311 310 309 309 310 309 308 309 311 311 307 309 314 311 310 310 307 307 306 309 311 309 311 312 312 313 312 311 307 306 307 307 311 312 311 313 310 310 314 311 310 313 312 312 314 314 314 315 314 315 319 317 311 314 317 319 321 321 321 322 318 309 315 323 314 311 318 323 323 316 312 318 321 319 319 316 316 319 319 317 314 312
317 315 315 314 313 312 311 310 310 309 309 309 308 310 311 309 306 309 315 310 308 308 307 307 308 311 311 309 311 313 311 312 314 311 307 306 307 307 310 310 312 315 310 312 317 313 311 312 311 312 312 313 316 315 314 318 319 313 307 312 315 317 320 321 321 321 317 314 322 322 312 311 318 325 326 315 311 318 321 320 319 317 318 321 321 318 317 320
316 315 314 313 312 311 310 310 310 310 310 309 308 310 310 310 308 309 311 310 309 309 306 307 309 312 313 310 310 313 313 313 312 311 310 310 309 308 308 308 312 317 315 318 320 314 310 308 310 312 312 313 313 311 312 316 314 309 312 315 316 322 325 325 326 320 313 319 324 317 312 311 312 322 325 313 313 317 315 317 317 317 322 325 324 320 318 323
316 315 313 313 311 310 311 310 309 310 309 309 309 309 309 313 313 309 309 312 312 309 306 307 310 312 313 311 312 313 314 314 312 311 312 310 310 311 310 309 313 318 318 319 318 314 311 310 311 312 311 312 313 312 309 308 309 314 322 319 315 322 325 327 331 321 314 325 322 311 311 312 310 319 322 316 316 315 313 317 316 318 323 325 325 320 318 324
316 315 313 312 311 311 312 311 310 309 309 309 309 309 308 311 312 309 308 309 310 310 309 310 310 312 312 311 313 313 314 315 311 312 314 312 311 311 311 313 316 314 313 316 316 314 315 314 311 311 310 312 316 317 310 310 315 318 320 319 318 321 319 321 328 320 318 323 314 308 312 311 310 316 316 316 317 314 313 315 316 319 320 323 325 321 320 325
315 314 313 312 312 312 312 311 309 309 309 309 309 311 311 311 310 310 308 307 309 310 310 310 310 312 312 311 313 313 314 314 312 312 313 312 312 310 311 315 318 317 316 318 318 315 316 317 313 312 313 311 314 316 313 314 317 314 313 318 321 322 317 316 318 315 317 317 310 308 311 312 313 313 314 317 312 311 312 311 314 316 316 319 319 317 322 327
315 314 312 311 312 312 312 311 309 309 310 309 309 310 313 312 310 310 308 307 309 309 309 310 311 312 311 312 313 312 312 312 311 312 312 312 312 311 312 311 313 321 322 317 317 316 316 318 315 314 314 312 313 315 316 317 314 313 315 315 318 325 325 322 320 320 321 318 312 309 311 318 318 309 312 316 311 310 312 311 312 313 313 314 312 314 323 330
314 312 311 310 311 312 311 311 310 309 310 310 308 308 311 311 310 310 308 308 311 311 309 311 313 312 312 314 313 311 313 313 311 311 312 313 312 312 313 309 311 320 321 315 314 314 313 314 314 313 310 311 314 314 314 316 314 314 313 313 316 322 326 322 316 319 321 317 315 312 314 321 317 309 310 311 310 311 312 311 313 317 315 313 317 323 327 331
312 311 311 310 311 311 311 310 310 309 311 310 308 309 310 309 311 311 308 309 312 311 310 312 314 314 312 313 313 311 313 314 313 313 313 312 312 312 312 310 312 315 315 316 318 316 313 312 313 313 310 311 314 312 312 316 316 314 312 315 318 316 321 318 308 309 312 313 315 314 315 318 313 311 316 314 313 314 312 312 315 320 319 315 322 329 328 330
311 310 311 310 310 311 310 309 310 310 311 310 308 310 310 307 310 311 308 310 310 310 312 312 312 314 313 313 314 313 314 314 313 313 313 312 313 313 311 312 313 312 312 316 318 317 317 315 313 315 313 310 310 311 313 314 313 315 316 316 313 310 317 319 312 315 316 314 318 316 315 317 313 313 320 317 313 313 313 313 313 315 317 318 323 330 329 328
311 311 311 310 310 310 310 309 309 311 312 310 309 313 313 308 308 310 310 309 309 311 313 312 312 313 313 314 314 312 313 314 312 314 314 312 314 314 312 311 312 310 311 313 312 314 319 316 311 312 315 313 311 313 314 311 309 314 317 313 313 315 318 315 312 318 317 312 322 322 313 311 312 316 321 314 313 317 314 311 311 312 314 319 324 326 325 322
311 312 312 311 310 310 310 309 310 311 312 311 309 312 314 309 308 311 310 308 310 312 312 313 314 313 311 313 314 312 312 313 312 313 313 312 313 314 311 311 313 310 309 313 311 312 318 318 313 311 313 313 314 315 316 315 310 311 310 307 314 322 320 315 313 317 316 311 318 324 317 313 313 316 320 313 315 322 318 314 315 315 314 318 322 322 320 318
311 313 313 310 309 310 310 309 311 313 313 312 309 310 311 308 308 310 309 309 311 309 311 316 314 313 313 313 312 312 313 314 312 312 313 311 311 311 309 310 312 310 309 314 315 313 314 316 315 313 312 314 317 317 316 316 312 311 311 309 313 316 314 314 313 314 318 317 318 318 319 327 323 313 316 314 313 319 322 320 319 319 319 319 319 323 323 321
312 313 312 310 310 310 310 311 313 314 313 311 310 310 310 308 308 308 309 313 312 308 312 318 314 314 316 314 312 313 313 314 312 311 313 311 310 311 310 310 313 311 310 312 314 317 315 313 316 316 314 316 318 313 310 313 313 311 311 311 313 314 315 316 313 312 313 315 319 316 314 326 325 312 312 314 312 314 317 316 316 320 321 317 316 323 324 321
312 313 311 310 310 310 311 312 313 313 313 312 311 311 311 311 310 307 308 313 315 312 313 315 315 316 316 312 312 314 314 314 312 312 315 312 311 313 310 310 312 310 310 311 313 317 318 319 322 320 317 316 313 309 306 310 314 312 311 314 315 314 317 318 317 315 310 306 312 315 311 319 324 313 310 312 310 309 309 312 318 323 322 317 316 320 322 322
310 312 310 309 310 310 312 314 314 313 313 312 310 310 311 314 313 310 309 311 313 312 311 313 313 312 313 313 313 313 313 313 312 312 316 314 311 313 312 311 311 310 311 312 312 313 316 320 322 319 318 316 312 309 308 309 313 313 313 316 314 313 316 321 323 320 314 308 311 313 311 318 327 318 313 314 312 309 309 312 317 321 320 317 316 319 322 325
307 308 310 310 310 310 312 314 314 313 312 310 310 310 310 313 313 310 309 310 312 312 311 312 311 309 314 316 314 312 312 313 312 312 314 314 310 311 312 311 310 311 310 311 313 312 313 317 320 318 319 318 316 314 314 314 314 316 319 315 313 315 315 315 316 316 316 315 314 316 316 318 324 320 315 317 317 316 316 317 317 317 317 317 319 321 323 326
306 306 308 309 309 311 312 312 313 313 312 311 311 312 311 310 311 312 311 312 316 317 312 311 312 314 317 314 311 311 312 314 316 312 311 314 313 310 310 311 310 310 312 317 316 312 314 318 318 317 317 316 317 318 318 319 316 316 320 315 312 314 312 313 315 313 316 316 312 318 320 314 315 316 312 314 317 315 315 318 317 317 317 319 322 324 323 323
305 306 307 307 308 311 311 310 312 312 312 311 311 312 312 311 310 312 313 312 315 318 316 312 313 315 315 312 311 312 311 313 315 314 312 314 314 311 309 310 310 309 316 323 318 315 319 319 314 314 315 314 314 315 316 320 319 317 319 316 312 311 311 317 319 315 316 315 311 316 317 311 312 315 313 314 317 317 316 315 316 316 317 319 321 324 323 319
304 306 307 308 309 310 309 309 311 312 311 311 311 310 312 312 311 311 312 311 313 317 317 314 312 311 312 312 312 312 312 311 313 314 313 312 313 311 308 309 308 311 319 319 314 318 321 317 313 315 316 313 314 316 316 318 318 317 317 315 313 311 311 316 317 314 315 315 312 314 314 311 313 317 318 317 317 321 321 317 316 315 316 317 317 319 320 320
305 304 304 307 309 308 309 309 310 312 311 311 311 311 311 312 312 312 312 311 313 317 316 314 313 312 312 312 311 313 312 311 311 314 313 311 313 311 308 308 308 310 315 312 311 319 319 314 315 316 315 314 316 319 318 317 316 318 318 316 313 312 313 314 314 313 315 314 312 313 314 312 312 313 318 319 317 318 318 316 313 313 314 315 314 316 319 323
303 303 302 305 306 306 309 310 309 311 312 311 311 311 311 311 311 313 313 313 315 316 316 315 315 314 312 312 312 313 313 312 312 313 313 312 314 313 311 311 310 310 312 311 312 315 315 315 316 313 312 314 315 317 317 315 317 317 317 315 313 312 312 312 313 313 313 313 313 313 313 313 311 311 316 318 314 311 312 313 313 313 314 315 315 318 319 320
303 303 302 303 304 304 307 309 309 311 311 310 312 311 310 311 311 311 313 314 316 316 314 314 317 315 312 312 312 312 313 313 313 314 314 312 313 314 314 314 313 311 309 310 311 309 310 317 316 311 313 314 313 315 315 314 317 317 315 313 312 311 312 312 313 312 312 313 312 311 312 313 310 310 313 313 310 308 310 314 315 314 315 315 316 319 317 316
300 301 302 304 305 305 306 309 310 310 310 310 311 311 310 310 310 310 311 311 314 318 316 316 319 316 311 311 313 312 312 312 312 313 313 313 314 314 313 314 314 312 310 311 312 309 310 316 316 313 314 314 312 313 315 314 315 316 315 313 312 312 312 312 312 312 312 312 312 312 312 311 310 310 312 312 312 312 314 314 314 315 316 316 317 318 316 314
298 300 301 304 306 305 305 307 309 310 311 310 310 310 310 311 310 310 311 311 313 318 318 318 321 320 315 312 312 312 311 310 312 313 313 316 316 313 314 315 313 312 312 312 314 315 314 315 317 316 316 315 311 310 314 315 313 313 315 314 313 312 311 311 312 312 312 312 312 312 311 311 313 312 311 312 313 313 315 315 314 315 315 315 315 316 315 315
Wind_Speed
28 28 27 26 23 22 23 23 22 20 19 19 18 18 19 17 16 16 18 20 21 20 20 20 19 19 17 16 16 17 15 12 11 12 16 20 20 16 14 12 11 12 11 12 11 6 3 1 2 3 5 3 3 1 2 2 2 3 3 3 2 3 3 6 8 7 4 3 5 4 6 8 5 2 2 1 4 3 1 2 2 2 3 4 4 3 7 18
29 29 27 25 23 22 24 23 22 20 19 19 19 19 18 17 16 16 17 20 21 21 20 20 20 19 17 15 15 15 12 12 11 14 23 23 17 16 16 12 11 12 9 10 12 10 6 2 3 4 4 2 2 2 1 1 3 3 3 3 3 5 5 5 8 7 2 3 6 4 4 5 5 5 3 2 1 2 2 3 3 3 5 4 4 3 11 19
31 29 27 26 24 23 24 22 21 20 19 19 19 18 17 17 17 16 17 20 21 22 21 21 21 20 18 16 14 12 11 9 7 13 23 22 19 18 16 13 11 10 8 9 10 11 9 6 8 5 4 2 1 1 2 2 1 2 4 3 4 6 4 3 6 6 3 4 8 5 3 2 3 4 3 4 2 1 4 5 1 3 7 4 1 5 15 19
32 30 27 26 25 24 23 22 21 20 20 19 19 18 18 18 18 17 18 19 21 21 21 20 20 19 18 16 13 13 12 5 4 9 14 16 19 18 16 15 12 9 9 9 8 10 10 9 8 4 4 2 3 2 2 1 1 2 4 3 5 3 2 3 5 5 3 4 7 6 5 2 3 2 2 6 5 2 6 7 8 9 8 6 5 10 17 19
31 30 28 26 26 25 23 23 22 20 19 19 18 18 18 19 18 17 17 18 19 21 21 19 19 19 16 14 14 15 10 1 3 6 7 12 15 15 15 14 12 10 9 9 8 9 10 10 7 5 4 1 2 2 1 2 1 2 1 2 4 3 2 3 3 4 3 4 6 7 6 4 3 2 3 8 6 5 6 6 9 9 8 7 9 13 16 18
31 29 28 27 27 25 23 22 22 21 20 18 19 18 18 18 17 17 16 16 17 20 21 19 19 17 14 14 15 14 8 1 1 1 2 7 12 13 14 13 11 10 9 8 9 10 8 6 6 3 3 2 2 2 2 2 2 2 0 0 2 2 2 2 2 4 5 6 7 7 5 4 5 1 2 7 8 5 3 3 5 6 7 9 11 15 16 17
32 29 29 29 28 26 22 22 23 22 20 19 19 18 18 18 17 17 15 15 16 18 21 20 19 17 14 14 12 8 5 4 3 2 3 3 11 14 14 14 11 10 10 10 10 7 5 6 5 5 4 3 2 2 2 1 4 4 2 1 2 2 0 1 2 4 5 6 6 4 4 5 6 4 1 5 9 4 2 2 1 4 9 11 12 15 17 20
32 30 30 30 28 25 23 23 23 21 19 19 19 18 18 17 17 17 16 16 15 17 19 19 19 17 15 14 9 3 4 5 2 2 2 2 9 14 14 13 12 11 12 13 11 7 5 7 6 5 4 2 4 3 2 3 4 3 3 3 2 0 2 0 4 5 5 4 2 4 5 2 5 4 2 7 9 5 2 4 5 6 8 10 11 13 16 18
33 32 31 31 28 25 24 24 23 21 19 19 19 18 17 17 17 16 16 15 15 17 18 19 19 18 18 12 6 3 6 7 3 2 3 3 9 13 14 12 12 13 12 12 11 9 6 5 5 5 5 3 4 4 3 3 1 2 4 3 3 1 3 2 5 6 4 2 2 6 3 3 2 2 3 6 5 4 0 5 5 7 7 8 9 12 15 17
34 32 31 31 28 25 25 25 23 21 19 19 18 16 16 17 17 15 15 14 15 18 19 19 20 21 19 9 6 4 5 5 8 5 1 5 10 12 13 11 13 14 12 10 9 9 6 6 6 5 5 3 4 3 2 3 2 4 7 6 5 2 3 2 5 5 2 3 2 6 3 3 1 1 4 3 2 2 2 3 3 6 7 8 8 11 14 16
34 33 32 31 28 27 27 25 23 21 20 19 17 16 17 16 16 15 13 13 16 19 19 20 21 23 17 6 6 6 3 4 8 8 6 7 9 11 11 9 12 13 12 7 9 12 6 7 10 6 2 3 4 2 0 2 4 6 8 7 6 4 4 4 6 4 2 3 2 6 4 3 2 1 6 3 4 1 5 3 3 5 6 7 8 9 12 14
34 33 32 30 29 29 28 25 23 21 20 20 18 17 17 16 15 14 13 14 16 18 19 20 22 22 12 3 6 7 3 4 7 9 9 9 9 10 9 8 9 11 11 6 9 13 7 8 13 7 0 5 5 2 2 2 5 4 5 6 5 6 6 5 3 3 2 3 0 4 2 3 2 6 7 3 4 3 5 4 3 4 5 5 7 8 10 13
34 34 32 31 30 30 30 28 23 21 21 20 18 17 17 15 14 13 13 15 16 18 19 20 22 19 9 2 8 8 6 3 5 9 11 11 10 9 8 9 9 9 10 5 7 11 7 9 12 6 2 6 3 2 4 4 3 2 3 5 2 5 3 3 3 4 2 2 3 2 2 5 8 11 7 3 3 5 4 5 5 4 4 3 5 6 8 11
35 34 32 31 31 30 30 29 25 22 21 20 19 18 16 14 13 12 13 14 16 17 19 21 22 15 5 3 5 8 9 5 6 9 11 12 10 8 8 9 9 8 8 5 5 7 7 9 10 7 3 4 3 2 4 5 3 3 3 3 3 3 3 5 3 2 3 1 4 4 2 6 8 9 5 4 1 5 4 6 5 5 5 4 4 5 6 9
35 34 32 31 31 30 29 29 26 22 21 20 19 17 15 13 12 12 12 13 14 16 18 20 20 11 2 4 3 6 11 8 8 9 10 12 10 8 8 10 9 7 6 3 4 7 8 9 8 6 2 2 5 6 4 4 4 3 3 1 2 4 4 6 3 1 3 1 4 5 3 6 7 8 5 4 2 6 5 5 5 5 6 5 4 5 5 6
35 34 32 31 31 29 28 29 26 23 21 20 18 16 15 13 13 13 13 12 13 16 18 17 17 9 2 2 2 5 8 8 10 10 10 13 10 7 9 11 8 6 5 4 8 10 8 7 4 3 3 3 4 6 4 3 3 4 3 3 2 3 2 4 1 2 1 1 2 2 2 3 3 5 4 3 2 5 5 6 6 6 6 5 5 5 5 6
36 34 32 31 30 29 28 28 27 24 22 20 18 15 15 14 14 14 13 12 14 16 15 13 14 7 1 2 3 4 5 7 12 12 12 12 10 9 11 8 5 8 8 7 9 7 5 5 2 0 3 3 3 5 5 1 2 2 2 2 2 3 3 2 2 2 3 2 1 1 2 6 5 5 6 5 1 3 4 7 6 5 6 5 5 5 6 7
36 35 33 31 30 29 28 28 27 24 22 20 17 16 17 16 15 15 16 17 15 12 8 7 10 4 2 4 3 2 3 8 13 13 14 12 10 11 10 6 6 9 8 5 3 3 3 4 2 2 3 2 3 5 6 5 6 6 4 4 2 2 3 2 3 2 3 3 3 2 4 11 10 9 8 4 2 2 5 6 5 6 6 6 5 6 7 7
37 35 33 32 30 29 28 29 27 24 23 20 18 20 19 16 13 12 14 14 10 7 3 4 7 3 4 5 3 2 6 11 13 11 12 12 11 10 7 7 7 7 5 2 1 1 2 3 4 4 3 3 5 6 7 8 8 10 6 5 5 4 3 4 4 4 1 3 4 6 6 9 10 10 9 4 3 3 6 5 5 6 6 6 5 6 7 8
36 35 33 32 31 29 28 28 25 23 22 23 25 21 13 10 8 5 5 4 4 5 3 5 6 2 1 1 3 9 9 9 6 6 11 13 13 10 5 4 5 5 4 4 3 2 3 4 3 5 7 8 9 7 6 5 6 8 6 5 5 4 2 3 3 5 0 4 4 4 4 9 10 11 11 7 2 4 7 7 8 7 6 7 7 8 8 9
36 35 33 32 31 29 28 27 24 22 22 28 28 13 5 7 5 5 5 1 3 5 3 2 5 2 1 1 5 9 6 4 4 4 11 13 13 10 1 2 5 2 1 3 2 2 4 5 7 6 7 8 6 6 7 6 6 6 6 6 2 2 2 2 2 4 2 2 3 2 3 10 12 11 10 7 4 7 9 8 9 9 8 7 7 9 9 8
37 35 33 33 31 29 28 25 22 22 24 27 18 4 2 4 7 13 10 3 3 4 4 3 4 0 2 1 5 4 1 4 4 2 8 10 8 7 1 3 6 3 0 2 3 2 2 4 6 5 6 7 6 5 7 7 6 5 4 6 3 2 2 2 2 3 3 1 3 3 2 10 11 10 11 8 7 8 8 8 8 8 8 8 8 9 8 8
37 36 35 33 31 29 27 24 21 21 23 21 11 2 3 5 12 18 10 4 3 1 3 3 4 3 2 0 5 3 2 4 4 3 6 8 5 4 5 4 5 5 3 4 5 5 4 5 5 6 8 9 5 3 8 7 4 4 4 5 3 3 2 2 3 2 3 1 0 0 2 7 7 7 10 8 5 6 7 7 8 7 9 10 7 6 7 8
37 36 35 33 31 29 26 24 20 18 19 18 11 5 7 9 14 14 5 4 3 0 0 2 3 4 2 2 5 4 3 2 4 4 5 7 5 3 5 5 5 5 4 6 7 7 5 4 2 7 8 10 7 3 6 6 1 0 3 6 4 5 5 3 3 1 3 2 2 2 3 6 4 4 9 5 3 5 5 5 8 9 9 8 7 7 8 8
38 37 35 34 31 29 28 23 16 16 17 14 11 6 7 9 11 9 5 4 2 1 1 1 1 3 5 4 4 5 3 2 1 3 4 6 6 4 3 2 3 5 5 6 7 5 4 3 3 7 5 6 8 5 6 7 4 2 4 7 7 8 7 4 5 5 3 1 2 2 2 5 4 4 8 4 6 6 4 5 9 9 6 5 7 9 8 8
40 38 37 34 33 33 26 14 11 16 14 8 11 10 5 8 9 6 5 5 1 1 1 2 2 5 8 4 3 5 4 1 1 1 4 5 4 4 4 1 1 3 5 5 4 2 1 1 3 6 6 5 5 4 6 6 6 2 4 6 7 8 9 8 7 5 2 2 1 2 3 4 6 5 6 4 6 8 6 6 10 8 5 5 6 7 6 7
41 39 38 36 35 34 20 8 13 17 8 7 14 12 7 7 7 3 5 5 3 2 4 1 1 6 8 3 3 6 3 3 1 2 3 3 1 3 4 4 1 1 3 4 2 1 3 3 4 5 6 5 5 4 6 7 7 3 3 6 10 10 10 9 7 4 2 3 2 3 3 2 5 5 6 4 5 9 8 8 9 6 5 6 6 6 6 6
41 40 39 37 36 31 17 13 19 14 3 8 18 14 8 9 5 2 6 3 2 1 4 2 0 5 4 1 2 5 2 2 4 1 2 3 1 3 3 6 5 4 1 4 5 2 3 5 5 7 5 4 5 4 6 9 6 3 2 6 7 8 8 7 6 4 1 1 1 4 2 1 5 6 5 4 3 8 8 8 9 6 6 6 5 5 5 6
42 41 39 38 35 26 16 16 19 14 6 12 21 17 12 10 4 4 5 2 1 1 2 2 3 3 2 1 2 3 2 2 2 2 2 3 1 3 3 5 7 8 2 2 5 2 1 5 7 7 6 5 3 2 2 5 3 3 6 8 7 7 6 5 5 4 3 2 4 4 2 1 5 6 3 2 2 6 8 8 7 6 6 5 5 6 5 5
43 42 41 40 33 24 17 14 18 19 10 12 22 19 12 7 4 5 3 3 2 1 0 2 3 3 5 6 1 2 3 2 1 1 2 1 3 6 2 2 6 7 3 5 4 1 2 1 1 3 3 4 4 3 2 2 5 8 7 8 7 6 5 3 3 4 3 2 6 4 2 0 3 6 4 3 4 5 6 5 4 4 5 5 4 5 5 4
44 42 43 40 32 26 18 9 16 21 12 15 23 16 8 4 3 5 5 3 3 2 1 1 2 5 10 12 5 1 4 3 1 4 3 1 4 4 2 2 4 4 3 3 3 3 3 3 1 0 1 4 6 5 5 3 5 7 4 6 6 4 4 4 4 3 2 4 6 4 2 1 3 6 4 4 6 5 5 4 3 4 6 6 5 5 5 4
44 43 42 37 31 28 19 10 19 22 15 21 22 10 5 4 1 5 3 2 3 3 5 5 5 6 11 13 8 5 4 3 2 5 5 3 3 4 3 3 4 3 1 4 1 3 2 1 1 1 0 3 6 5 5 5 4 5 5 7 6 2 3 1 3 1 3 5 4 3 1 2 5 7 7 9 10 8 7 7 6 6 6 7 6 5 5 4
43 44 39 34 31 28 21 18 21 22 21 24 16 3 4 5 6 8 4 3 2 2 5 5 3 6 9 10 6 4 3 2 4 5 2 3 4 4 1 2 5 5 3 5 3 2 1 4 2 2 1 1 5 6 3 2 1 4 6 6 5 3 3 3 3 1 3 4 3 3 1 2 5 5 9 13 10 6 7 7 7 7 7 7 7 6 7 6
44 45 37 32 31 27 23 22 20 23 26 19 8 4 6 7 8 7 7 5 1 2 3 5 6 6 6 5 4 4 3 0 4 6 3 4 5 4 3 2 3 5 4 3 3 5 4 3 2 3 1 0 3 5 5 5 4 2 3 5 6 5 5 5 4 3 4 2 2 3 1 3 3 3 6 10 7 4 5 6 5 6 7 6 6 6 6 6
45 43 38 31 27 24 24 24 21 26 25 11 5 7 9 10 7 7 9 5 2 2 3 4 8 8 5 0 2 4 3 1 2 5 4 5 6 7 6 6 6 4 5 5 3 2 3 3 3 2 2 1 2 3 3 6 4 2 1 5 3 4 5 4 3 5 5 2 1 2 3 4 3 6 8 5 5 6 6 4 4 7 7 4 5 6 5 5
43 37 34 28 24 23 23 24 24 26 20 8 6 9 9 9 5 6 7 5 4 6 7 5 4 6 6 0 1 4 0 3 4 3 3 4 4 6 7 6 7 6 5 6 3 1 2 2 3 3 1 1 1 2 1 2 3 2 2 3 5 4 8 6 2 0 3 2 2 1 3 5 4 7 9 4 5 7 4 3 3 6 6 4 5 5 4 5
34 28 23 21 23 23 22 24 26 24 13 5 9 10 7 5 3 5 6 5 6 9 10 5 2 5 7 3 3 6 2 2 4 3 3 4 2 5 7 4 5 10 7 4 3 4 5 1 3 2 1 1 1 1 3 3 3 4 3 5 4 3 5 5 2 2 3 2 3 0 4 5 2 4 7 5 5 9 5 4 4 5 5 5 5 5 5 6
24 19 12 17 25 23 21 24 25 18 6 3 11 10 3 3 3 5 8 7 8 8 8 6 3 4 7 6 5 6 4 3 5 4 5 4 4 6 10 5 4 10 8 3 1 2 4 3 2 1 1 2 3 2 2 3 3 3 3 3 3 3 2 1 3 2 1 2 4 3 3 3 4 5 4 3 7 9 6 4 4 5 6 6 5 5 7 6
18 11 5 17 28 23 22 24 19 11 3 6 13 10 2 3 3 4 9 10 7 6 6 5 3 2 5 6 6 5 4 4 7 6 4 5 5 5 10 7 3 7 8 5 4 2 3 3 1 1 1 1 3 1 4 2 3 3 2 2 2 2 4 2 2 3 3 3 3 4 3 3 6 6 5 8 10 8 6 4 5 7 7 6 5 5 6 5
10 4 4 19 29 25 25 22 12 6 6 10 10 5 2 3 0 2 6 8 5 3 5 5 4 5 5 4 4 5 5 5 7 6 4 5 5 4 7 7 4 6 4 4 4 3 3 3 3 1 3 1 1 2 5 6 3 2 2 4 2 1 2 2 1 3 4 4 3 2 3 5 6 5 8 11 9 7 6 5 6 6 6 7 6 5 5 5
5 2 5 21 32 29 25 15 6 7 8 7 4 1 2 3 4 3 2 4 4 1 4 6 5 6 5 5 4 5 5 4 6 5 3 5 6 4 6 7 8 9 5 4 3 4 2 3 5 2 0 2 3 3 3 4 3 3 4 6 6 3 4 3 1 1 2 3 4 4 3 8 6 4 7 8 6 5 5 4 5 5 5 7 6 5 5 5
4 3 7 25 35 30 19 7 5 7 5 5 3 1 2 2 5 6 2 2 4 2 3 5 4 4 5 5 5 6 7 4 5 5 3 6 8 7 5 5 9 11 9 4 2 2 3 4 4 2 3 4 4 3 2 3 2 2 2 3 5 4 4 6 5 3 2 2 2 4 1 7 6 4 5 6 5 4 4 5 5 4 4 6 6 6 5 4
2 3 13 31 37 26 12 4 5 6 5 3 1 1 1 2 3 6 4 2 3 2 2 3 3 3 3 4 5 7 8 6 6 8 6 5 6 5 5 7 10 10 8 4 2 2 2 4 4 0 2 2 4 2 1 1 0 1 3 3 5 3 3 5 5 4 5 4 2 3 2 7 6 3 4 5 5 3 4 6 6 4 4 5 6 6 5 5
1 2 8 26 36 24 9 5 9 10 6 2 2 1 0 1 3 6 7 6 3 4 4 3 3 3 3 4 5 8 10 6 5 9 6 3 4 2 6 11 12 9 7 4 6 6 3 3 5 3 2 3 3 1 1 3 1 4 3 3 4 4 6 4 2 4 2 4 6 5 4 8 6 4 2 3 5 5 5 6 5 5 4 5 6 6 5 4
1 2 2 12 24 18 6 3 6 8 7 5 4 4 2 1 1 2 5 5 2 4 5 2 2 4 4 4 4 3 8 5 3 5 3 1 3 1 4 11 13 10 6 3 6 7 4 4 5 6 6 5 4 5 4 3 3 2 1 4 6 7 8 5 3 4 3 5 6 6 7 8 5 4 2 4 5 5 5 5 5 5 5 5 6 5 4 4
1 1 1 3 6 6 4 1 2 5 8 7 5 4 3 3 0 3 2 4 1 3 4 1 3 6 4 5 6 4 9 6 2 4 5 5 4 2 3 8 10 8 5 7 9 7 3 2 5 7 9 9 10 9 5 5 5 4 5 8 9 8 8 6 4 4 5 3 3 6 9 9 7 4 5 7 6 6 6 5 6 7 7 6 5 4 5 5
0 0 2 3 1 2 2 1 2 4 6 8 5 4 5 5 2 1 1 1 2 3 3 2 4 6 6 8 7 6 10 7 2 4 7 6 3 1 1 3 5 4 4 7 7 6 4 3 6 8 10 10 9 6 4 6 7 9 9 9 9 9 8 8 7 7 6 6 5 11 10 10 11 6 7 9 7 7 7 7 8 8 7 6 5 5 6 5
0 1 1 1 0 3 4 5 7 4 6 8 3 3 8 6 4 4 1 1 0 2 2 1 4 10 12 12 8 5 6 5 3 4 5 4 3 1 3 2 1 1 3 5 3 4 5 6 7 8 11 12 5 4 4 6 6 7 10 11 12 12 12 12 13 11 8 7 12 16 13 14 14 9 9 11 9 8 8 7 6 5 4 5 5 5 6 5
1 1 1 2 2 1 2 7 9 6 7 10 4 3 8 10 8 5 2 3 1 2 2 4 7 9 11 12 9 7 7 7 6 6 5 5 4 4 3 1 1 0 3 5 2 2 4 5 5 8 11 11 4 4 3 5 5 4 8 12 13 14 16 16 16 14 12 12 18 17 11 11 12 9 10 10 7 5 4 3 2 5 6 5 5 5 6 7
1 1 1 2 2 1 2 6 10 7 5 8 7 3 6 11 12 6 1 4 4 2 2 6 7 6 8 10 10 9 11 14 12 10 7 6 2 2 3 4 3 2 2 4 2 1 2 3 1 6 6 8 3 5 3 4 6 4 4 6 10 12 14 15 15 14 11 13 19 15 8 10 8 9 9 8 2 3 3 5 6 8 7 5 6 7 8 8
1 1 1 2 2 1 1 3 7 7 5 6 8 5 6 10 12 7 1 1 4 5 5 7 7 5 4 7 10 11 12 12 10 10 13 11 7 7 5 4 7 6 3 3 3 2 3 1 2 5 4 5 2 5 5 6 6 4 2 5 11 11 12 14 14 13 12 14 16 10 9 12 7 7 8 7 4 5 7 9 8 8 8 7 9 10 8 8
1 1 0 2 2 3 3 2 4 7 6 6 7 5 5 5 7 7 4 2 2 4 6 9 9 5 4 8 13 10 6 5 4 6 9 6 5 6 5 5 11 12 8 6 4 3 5 5 2 3 5 3 2 4 7 7 4 1 4 10 16 15 15 13 11 11 11 12 11 9 12 11 5 8 9 9 8 9 9 9 9 10 10 10 9 9 9 9
Wind_Direction
189 193 194 193 193 193 198 197 192 193 192 190 189 191 198 197 193 195 197 200 201 205 209 210 213 217 218 221 229 229 222 220 226 222 228 243 245 244 253 265 268 276 278 250 242 234 187 146 184 133 121 93 11 329 52 28 62 59 79 98 139 172 203 185 176 193 167 178 198 201 187 159 167 199 180 105 48 55 104 292 302 306 264 243 266 280 159 158
187 188 191 191 191 192 195 193 189 189 189 187 188 189 192 192 193 192 194 198 200 205 207 206 209 211 211 209 215 215 207 219 227 231 240 246 248 247 251 259 261 269 268 235 230 214 179 186 185 111 77 68 350 355 59 5 68 85 111 115 202 198 207 195 170 178 161 139 161 175 187 175 179 164 149 169 327 36 150 262 333 324 259 241 284 229 167 163
186 185 187 188 189 190 190 187 185 187 187 186 186 187 188 189 191 191 192 194 196 201 202 203 206 207 207 203 206 203 195 212 227 248 254 249 244 243 247 254 256 259 246 227 225 215 204 185 159 117 59 68 349 28 68 17 41 144 119 114 231 209 210 219 178 178 190 144 142 160 171 173 199 155 155 175 167 147 188 221 233 260 242 216 235 161 164 167
185 184 186 187 188 188 186 183 183 186 186 185 184 183 184 187 187 190 191 190 194 197 197 201 205 207 207 202 201 190 187 216 243 244 252 243 233 234 241 245 247 248 234 228 226 221 207 161 134 90 72 74 338 22 89 346 255 146 114 160 213 181 157 207 197 187 180 149 141 141 135 163 215 157 156 152 142 242 238 221 202 213 213 186 173 165 167 169
183 184 185 184 187 185 181 180 182 185 183 181 181 179 181 184 183 185 188 187 191 191 190 196 203 208 205 199 195 189 188 249 257 228 234 225 214 217 228 229 233 235 224 226 216 194 179 145 111 66 73 101 349 56 136 296 72 97 70 178 176 139 132 188 202 180 148 109 119 131 150 175 158 124 157 158 174 230 233 218 210 213 193 168 166 167 170 172
183 183 183 183 183 181 177 177 182 183 178 177 178 177 178 181 180 181 184 183 187 186 184 190 198 202 195 191 192 194 201 224 247 316 294 218 198 199 208 209 216 218 212 209 188 166 156 124 109 116 79 75 145 144 196 287 32 111 280 294 177 188 150 176 200 177 143 117 138 157 169 143 122 157 182 181 210 219 219 233 227 219 170 151 154 163 172 178
183 182 182 182 180 178 176 177 182 180 173 174 177 177 178 178 177 179 180 179 183 183 182 184 189 192 183 179 185 199 231 250 258 360 19 205 195 189 189 196 199 200 198 187 176 163 141 120 132 150 100 83 167 172 175 62 38 94 148 199 193 213 113 233 168 148 131 134 171 167 128 133 156 174 100 221 232 227 282 332 186 170 144 145 152 168 180 184
182 182 181 180 178 176 176 179 180 175 171 174 176 178 179 177 175 176 178 177 180 180 180 181 182 180 172 169 170 187 247 246 249 48 42 161 185 179 175 184 184 186 187 187 185 170 147 136 152 152 116 182 170 142 149 94 38 81 144 177 157 359 358 64 118 110 115 123 146 120 115 197 193 155 139 238 242 254 287 61 100 125 134 154 164 179 186 190
181 181 180 178 176 174 176 180 176 170 171 173 174 178 180 177 176 176 177 177 178 178 178 178 175 167 169 171 145 153 230 229 198 87 62 152 176 174 172 177 179 181 181 195 199 174 167 163 177 172 151 192 146 134 165 139 223 149 134 144 127 29 340 60 90 83 106 93 83 124 98 315 220 161 255 247 252 271 273 86 111 130 147 176 177 186 189 192
181 180 177 176 174 173 176 176 171 169 171 171 172 177 176 175 177 175 175 175 175 177 176 174 169 163 170 169 126 173 238 214 195 199 137 162 176 175 175 177 179 183 179 192 202 183 186 183 177 155 131 141 122 124 166 164 187 127 116 105 88 61 341 27 87 68 91 83 81 137 119 313 283 282 257 263 332 285 124 105 149 153 175 193 190 196 194 197
180 177 175 176 174 173 174 172 170 171 172 170 171 173 171 173 176 171 170 172 172 173 174 171 166 166 173 165 152 194 236 182 188 196 189 175 179 183 183 183 183 187 183 182 203 200 206 184 155 118 116 162 123 85 294 156 113 121 128 92 31 33 40 28 73 50 29 95 91 122 117 314 8 279 233 263 337 197 147 161 196 185 198 197 198 204 202 208
179 176 176 176 174 174 173 172 171 170 172 170 170 170 169 173 174 168 166 167 169 171 172 170 168 168 161 155 202 204 179 172 181 178 179 174 177 183 184 189 189 194 190 185 212 206 214 189 150 107 293 154 128 127 154 114 93 126 124 92 5 16 44 9 33 344 360 115 229 112 106 293 243 229 232 281 341 98 138 188 221 220 220 199 205 211 210 214
178 178 178 175 175 175 174 174 172 169 170 169 169 170 170 174 170 165 163 164 169 169 169 168 168 164 142 166 226 210 184 170 172 175 176 171 174 180 183 188 187 196 200 209 222 203 204 191 155 118 109 114 125 189 125 68 69 131 73 90 74 31 24 332 343 324 76 103 313 134 184 267 247 247 246 316 4 106 145 215 228 236 235 224 214 217 220 216
177 178 177 175 175 175 175 175 171 169 169 168 170 169 168 168 163 159 158 163 168 167 167 166 163 155 138 222 225 208 205 190 174 183 178 173 169 166 176 180 181 193 200 220 228 197 191 175 137 106 93 97 124 130 67 26 25 109 82 54 81 126 250 301 334 346 119 91 347 117 197 270 263 266 266 321 352 148 195 236 233 243 244 242 230 227 232 222
177 179 177 175 175 175 175 174 170 169 171 173 171 166 164 160 156 152 154 163 164 164 163 161 162 149 113 261 237 193 197 189 186 190 184 180 167 154 168 172 177 186 184 202 187 162 158 146 113 91 71 32 99 99 55 24 14 43 114 327 355 154 244 308 329 46 143 194 21 106 205 273 269 267 262 327 38 160 212 249 246 247 242 243 243 238 244 242
176 177 176 175 174 174 173 171 169 168 170 174 169 161 158 152 147 145 150 156 153 159 156 155 167 156 104 239 192 175 186 187 190 187 180 182 178 163 155 152 154 160 152 132 130 130 121 107 86 98 107 71 98 106 80 50 3 353 106 172 226 156 222 307 309 332 52 138 16 90 203 267 280 261 258 324 66 149 213 255 256 251 249 245 241 243 248 259
175 176 175 174 174 174 172 169 167 168 169 170 163 155 152 145 141 139 139 141 141 150 148 156 172 164 44 173 156 189 188 176 179 175 172 177 182 170 150 131 116 127 118 109 121 111 65 58 63 131 73 75 124 116 107 113 221 299 46 127 205 175 177 266 234 306 21 108 213 52 215 243 259 264 270 296 74 144 220 252 258 253 254 246 236 244 244 249
174 175 175 174 174 173 171 167 166 167 168 166 156 147 142 134 132 132 132 131 126 127 127 150 158 152 258 194 171 216 169 154 160 161 164 165 172 171 153 125 117 120 102 84 103 66 31 31 61 115 62 75 150 135 154 197 185 182 183 149 178 193 187 242 229 253 27 96 193 180 233 251 263 276 276 270 144 182 245 256 268 263 258 254 242 239 239 241
173 173 174 174 173 172 170 167 167 166 163 159 147 136 127 116 112 120 133 133 124 123 144 172 153 155 219 199 169 127 119 139 146 148 153 152 158 157 128 114 115 109 109 109 124 97 82 57 66 137 160 171 188 181 180 197 180 173 177 142 141 158 216 244 249 271 143 127 209 208 227 258 264 273 276 257 158 206 259 269 269 262 257 255 248 243 241 240
173 173 173 172 172 172 170 169 169 167 159 152 146 135 123 124 114 116 148 146 157 152 139 175 169 138 253 229 130 126 117 121 127 138 150 152 150 136 77 75 85 70 118 150 163 151 104 129 180 189 186 188 193 183 158 164 153 142 129 111 134 151 200 249 263 301 65 145 237 230 247 270 264 265 271 269 239 248 263 267 264 257 251 245 240 244 241 239
173 172 171 172 171 171 170 171 170 167 161 156 152 143 148 163 146 157 165 138 195 160 89 152 163 119 320 234 148 146 124 77 64 119 150 155 149 144 17 31 113 102 184 151 140 93 102 169 211 210 190 173 163 144 117 100 95 110 135 133 128 162 197 254 247 318 357 173 263 346 286 267 263 265 269 270 265 258 251 247 254 251 248 243 236 243 243 248
173 172 170 170 171 171 170 170 170 168 167 164 162 161 185 156 131 145 141 109 201 171 77 89 133 145 311 184 185 195 76 76 81 112 158 152 150 166 177 78 134 162 222 118 113 98 148 214 227 202 161 113 87 95 101 90 89 90 112 128 147 215 212 288 289 342 15 180 272 352 301 267 266 267 267 257 240 247 244 235 242 245 247 246 233 239 246 256
172 171 169 169 170 169 168 169 171 172 171 172 174 166 134 115 131 142 128 99 170 152 69 106 148 180 328 206 200 204 65 116 149 212 186 152 151 173 140 119 142 139 146 166 155 154 186 248 239 174 143 118 88 72 99 90 84 94 110 130 175 215 167 223 247 331 17 69 235 351 292 280 281 280 268 257 243 262 268 256 252 244 242 248 246 247 248 250
172 171 169 168 168 166 167 169 171 174 176 179 183 152 108 118 144 147 107 81 143 218 211 172 152 168 184 182 186 159 87 121 156 182 189 155 141 149 146 145 136 134 182 185 160 165 204 270 203 146 148 142 132 128 130 128 129 193 156 148 164 191 181 195 181 100 9 20 66 59 320 297 296 280 262 279 344 293 291 292 268 251 242 254 270 263 247 243
171 171 169 166 166 165 164 163 165 173 174 181 190 169 107 125 154 151 100 78 135 334 303 199 136 183 185 157 168 166 124 98 148 174 174 156 142 132 142 141 139 173 187 151 138 173 234 282 132 137 146 142 142 173 184 162 164 256 223 180 169 173 163 138 128 92 49 342 15 43 298 288 312 285 252 293 345 293 299 307 266 258 257 258 263 259 250 247
171 171 169 166 165 163 159 156 165 167 165 188 195 180 152 142 151 148 99 62 304 259 172 170 140 177 178 159 167 154 119 138 293 81 133 152 150 119 131 114 47 180 168 133 136 180 222 360 95 135 138 129 139 193 208 159 141 216 238 175 144 139 135 139 145 113 112 210 335 66 175 256 316 305 260 299 325 291 297 287 263 265 273 257 250 257 258 254
172 171 168 166 164 162 156 141 160 160 155 206 193 178 176 154 144 139 81 53 292 207 145 173 360 161 171 196 171 142 152 199 114 74 107 142 166 66 129 172 103 164 168 127 160 229 122 88 74 110 116 126 146 208 210 150 132 207 235 138 130 134 144 152 141 120 165 192 349 22 127 217 294 277 267 307 305 291 297 276 267 273 270 263 259 261 260 256
172 171 167 165 165 166 160 139 152 163 151 181 183 176 161 146 139 96 86 93 248 154 136 201 123 139 151 316 104 113 176 169 117 180 334 90 154 47 116 184 155 146 162 136 187 252 105 144 165 142 127 160 183 229 200 146 128 238 203 124 131 131 137 136 114 108 86 108 280 321 41 184 265 272 300 347 303 283 285 264 263 279 278 275 278 275 269 264
171 169 166 163 162 166 168 153 158 173 159 158 174 174 151 142 135 75 83 142 198 89 129 152 126 127 122 107 85 73 70 55 104 220 345 79 106 51 129 183 138 124 69 99 171 219 89 182 187 153 153 189 191 301 215 145 136 180 133 99 86 80 84 90 98 108 57 62 230 270 10 217 265 280 304 357 281 258 263 261 262 272 274 273 283 291 293 290
170 168 165 161 158 157 157 154 166 172 159 156 169 169 148 139 122 101 141 203 147 105 202 137 164 163 145 143 104 360 93 77 101 72 23 91 40 31 105 141 105 113 51 41 92 269 312 257 196 130 161 175 137 74 32 92 132 139 119 87 71 44 37 52 56 84 76 300 249 259 317 266 276 278 244 212 223 224 238 269 289 290 291 285 278 287 296 302
169 167 165 162 159 156 148 143 169 171 163 158 162 161 141 91 72 135 188 208 128 107 109 156 196 153 156 162 168 196 112 86 146 123 130 171 48 51 119 111 84 83 55 58 46 334 360 25 331 127 135 124 102 70 36 40 102 108 105 104 93 15 12 28 358 42 120 250 262 279 307 158 225 259 246 242 259 236 209 223 243 270 294 291 283 293 296 299
168 167 166 165 161 161 161 157 164 167 163 156 155 153 126 94 139 184 192 169 156 189 175 183 204 174 173 171 160 169 138 102 156 147 146 153 141 159 166 176 156 101 165 179 105 358 35 23 299 16 169 144 111 83 37 350 14 74 114 119 106 28 23 20 303 337 205 243 272 296 298 206 235 251 258 266 268 247 221 219 227 246 272 280 288 308 311 310
169 166 165 165 162 164 170 163 160 163 159 153 149 98 93 140 201 199 182 182 192 187 153 153 164 159 165 165 163 169 132 138 177 156 133 129 154 194 235 180 152 122 183 179 125 101 344 308 305 98 252 212 135 128 129 246 229 130 146 136 127 121 109 210 250 292 247 252 291 294 267 257 274 268 251 251 250 227 220 227 231 239 254 269 287 307 309 306
168 165 162 161 162 168 172 163 161 163 155 151 149 109 125 177 202 179 173 204 222 75 113 128 122 133 158 166 188 182 123 128 171 138 131 130 144 196 223 218 168 105 114 149 152 162 177 261 242 168 216 281 164 173 156 147 143 176 175 130 147 158 152 194 205 187 215 245 308 298 251 201 220 268 245 241 253 257 241 249 258 258 257 266 289 300 298 297
164 161 158 156 158 163 165 163 165 163 155 147 155 156 173 196 198 176 178 189 176 87 57 98 120 139 179 294 305 209 144 134 172 117 131 162 170 189 188 200 205 141 124 160 199 169 168 235 273 280 267 138 171 217 130 108 120 235 119 103 162 183 139 143 175 172 164 126 266 252 241 214 214 280 275 261 282 280 258 266 275 264 270 287 294 294 294 292
156 154 154 153 154 153 157 164 167 163 158 147 159 181 201 201 185 177 173 148 145 137 103 84 97 139 181 207 314 237 92 110 170 144 149 189 203 194 190 202 195 175 159 158 172 165 156 254 320 336 328 76 178 227 101 113 164 168 111 157 212 166 114 116 162 111 94 135 241 209 256 289 326 293 293 323 301 280 258 257 247 253 280 299 274 279 287 275
147 146 148 149 153 153 156 165 164 159 158 156 180 195 203 194 162 140 145 128 139 138 123 135 163 150 173 179 199 212 195 116 172 179 173 187 224 196 196 231 191 185 191 157 176 198 156 149 342 26 80 357 287 177 45 30 116 123 163 202 194 121 98 112 132 23 50 200 269 288 236 285 338 281 312 342 270 261 251 240 250 260 272 264 254 266 266 259
140 138 132 146 154 154 155 162 159 150 135 165 200 212 194 172 182 141 138 136 137 135 136 163 174 152 171 178 189 195 181 170 184 182 168 179 240 201 180 201 200 190 195 150 161 211 132 130 331 19 162 316 352 78 84 13 46 117 183 179 118 141 175 108 138 159 129 212 276 306 273 261 209 224 296 280 230 246 243 208 218 231 226 231 247 256 255 263
137 133 113 152 157 154 153 155 148 136 137 187 203 220 185 147 206 176 148 136 126 132 150 176 167 129 170 171 167 170 172 175 173 180 179 179 234 215 179 190 202 184 184 152 160 191 110 138 219 323 246 284 7 71 169 202 10 35 73 105 78 134 166 163 147 159 172 188 238 303 322 261 224 210 214 221 224 229 221 195 211 221 214 220 229 226 235 254
138 130 121 156 158 153 148 144 134 143 190 197 199 214 178 137 133 239 163 133 119 142 162 179 167 147 163 167 161 167 165 159 168 193 218 182 202 232 196 191 165 159 153 91 131 160 86 125 176 308 328 186 168 222 194 185 166 89 113 165 178 51 121 164 86 111 138 157 181 245 289 263 247 203 196 218 226 217 205 196 213 225 220 219 218 205 204 218
136 104 130 157 158 150 140 138 155 184 195 199 187 149 210 174 129 170 209 95 97 127 137 143 149 149 152 153 170 175 152 145 173 191 221 193 198 227 212 186 157 149 127 77 132 165 135 141 153 143 103 183 220 259 214 198 187 149 169 187 178 142 119 142 234 240 114 137 167 172 251 268 257 206 205 223 229 220 213 210 227 241 227 217 220 221 205 192
134 116 150 161 160 151 144 154 188 187 203 206 181 131 171 150 131 155 197 62 93 95 93 111 127 142 150 156 166 164 152 153 178 186 207 208 203 215 220 169 149 154 152 140 165 163 124 108 112 145 203 206 256 286 192 219 243 139 189 194 163 154 140 151 202 222 120 121 144 114 257 273 262 215 219 237 241 227 214 230 255 269 236 216 221 233 223 208
100 107 148 160 161 157 156 175 170 186 224 216 190 13 66 86 128 155 181 175 136 124 108 116 140 150 162 162 150 159 168 170 184 195 203 209 212 217 186 145 141 154 154 142 158 151 114 109 108 49 304 315 309 302 154 240 240 200 236 196 166 180 151 150 181 170 132 154 146 94 273 271 273 255 229 245 262 258 224 232 246 262 252 216 204 208 209 223
65 67 139 161 165 166 174 189 182 190 196 138 100 133 75 96 141 157 176 185 171 141 134 138 164 158 157 149 140 170 184 179 198 205 195 190 214 196 155 155 151 161 177 179 175 176 185 162 131 108 42 357 347 345 318 317 228 213 229 176 159 127 98 100 118 103 125 200 164 147 234 256 274 304 296 278 292 287 256 241 229 220 213 194 195 208 218 238
121 41 43 158 166 174 194 202 185 181 163 132 142 170 165 66 100 174 169 163 155 140 145 163 154 120 120 133 103 153 186 175 177 198 187 207 232 266 174 175 169 176 193 164 146 158 179 176 152 154 170 182 194 199 215 227 194 210 207 162 171 158 144 148 119 113 209 225 159 159 226 253 290 338 318 278 283 272 249 233 226 223 213 207 213 228 242 252
121 109 55 127 161 193 209 74 103 175 169 161 167 180 158 123 43 328 101 145 177 116 109 103 123 104 110 150 131 157 201 202 125 159 191 203 213 284 217 184 180 187 170 132 139 142 135 180 186 191 199 198 201 204 186 137 144 187 195 177 178 175 156 132 115 162 193 170 164 211 232 255 279 293 271 259 240 236 232 204 209 224 225 228 231 236 242 239
119 92 151 139 108 182 195 99 143 184 175 167 173 185 173 155 147 350 42 159 195 130 83 53 143 155 166 165 155 173 199 203 146 164 193 200 205 335 34 153 181 190 136 144 160 126 105 207 208 201 219 223 210 201 166 142 166 189 182 169 173 170 149 149 185 202 154 118 234 240 224 240 254 238 237 244 227 227 235 212 208 215 217 225 238 250 256 258
127 70 161 253 183 179 197 181 168 155 152 166 174 160 171 177 167 166 147 33 103 169 125 97 195 188 174 163 159 165 180 189 208 201 185 168 162 115 54 59 214 200 121 145 168 111 133 208 205 187 222 235 205 158 170 162 164 177 170 169 174 168 165 185 208 205 157 162 237 238 211 220 236 220 217 231 219 215 224 214 210 222 229 234 246 267 278 283
112 109 338 341 6 194 174 151 151 142 150 169 186 154 171 187 191 186 123 86 174 257 154 172 208 197 175 165 160 160 170 181 208 220 188 154 160 145 114 137 234 240 112 134 168 149 158 208 195 173 217 237 186 117 164 160 143 168 180 176 174 173 181 195 209 210 193 204 235 239 225 231 236 214 216 232 216 208 249 299 264 239 232 215 218 250 262 259
101 119 93 61 52 22 57 130 150 157 155 173 194 186 174 190 194 194 93 127 167 221 189 190 193 175 171 176 174 184 192 189 196 201 168 140 153 166 161 182 170 95 107 144 165 208 186 220 155 139 205 247 184 123 126 135 145 163 171 170 172 179 192 205 215 215 206 224 241 248 264 273 246 197 214 241 177 139 268 277 253 244 240 213 212 233 238 240
9 359 109 111 97 117 120 128 152 163 169 186 195 182 176 197 193 177 187 190 159 164 178 177 158 124 133 184 203 213 204 194 197 190 168 160 177 189 190 182 152 137 146 164 146 136 173 202 45 102 185 251 226 159 139 99 104 112 115 171 180 185 197 208 215 210 198 217 238 249 263 265 239 166 197 231 190 183 233 242 240 248 243 222 224 236 237 237
339 335 72 123 115 142 151 117 148 171 183 192 194 173 154 183 176 163 191 262 145 165 171 161 154 125 120 193 216 217 183 165 181 178 168 156 156 172 175 166 158 154 159 168 160 145 155 150 101 143 185 247 310 150 137 106 103 186 218 194 189 196 206 210 222 224 208 207 218 226 235 239 193 149 181 207 205 212 227 229 229 238 235 224 225 234 241 248